ETD612 OEJN-OMAA

Flight info

Callsign ETD612
Flight time 2h 14m
Altitude 35000
Route EGREP T532 KODIS Y214 RAPMA DCT KUVSO DCT RIBOT M550 GOLGU M318 ATUDO
Aircraft A21N/M-SDE2E3FGHIRWXY/LB1

Departure

Time 2026-05-05 14:01
Airport King Abdulaziz International Airport (OEJN)

Arrival

Time 2026-05-05 16:16
Airport Zayed International Airport (OMAA)
Time Latitude Longitude Altitude Speed Heading
2026-05-05 13:24 21.66964 39.16801 46 ft 0 kts 29°
2026-05-05 13:51 21.66956 39.16796 45 ft 4 kts 25°
2026-05-05 13:51 21.66931 39.16787 43 ft 4 kts
2026-05-05 13:52 21.66904 39.16787 42 ft 4 kts 347°
2026-05-05 13:52 21.66880 39.16798 41 ft 4 kts 322°
2026-05-05 13:52 21.66864 39.16818 46 ft 2 kts 291°
2026-05-05 13:52 21.66863 39.16820 46 ft 1 kts 291°
2026-05-05 13:55 21.66865 39.16815 46 ft 1 kts 290°
2026-05-05 13:55 21.66870 39.16802 45 ft 3 kts 292°
2026-05-05 13:56 21.66878 39.16779 45 ft 4 kts 292°
2026-05-05 13:56 21.66890 39.16746 45 ft 5 kts 292°
2026-05-05 13:56 21.66906 39.16705 44 ft 7 kts 291°
2026-05-05 13:56 21.66913 39.16650 43 ft 8 kts 263°
2026-05-05 13:57 21.66900 39.16584 43 ft 10 kts 256°
2026-05-05 13:57 21.66875 39.16510 42 ft 11 kts 249°
2026-05-05 13:57 21.66836 39.16430 42 ft 13 kts 223°
2026-05-05 13:57 21.66744 39.16429 41 ft 15 kts 161°
2026-05-05 13:58 21.66645 39.16471 42 ft 16 kts 158°
2026-05-05 13:58 21.66536 39.16518 42 ft 18 kts 159°
2026-05-05 13:58 21.66418 39.16567 42 ft 19 kts 159°
2026-05-05 13:58 21.66295 39.16619 42 ft 17 kts 158°
2026-05-05 13:59 21.66150 39.16531 40 ft 15 kts 250°
2026-05-05 13:59 21.66175 39.16466 40 ft 0 kts 339°
2026-05-05 14:00 21.66183 39.16462 40 ft 9 kts 338°
2026-05-05 14:01 21.66484 39.16343 42 ft 81 kts 340°
2026-05-05 14:01 21.67209 39.16059 40 ft 139 kts 340°
2026-05-05 14:01 21.68228 39.15672 332 ft 158 kts 340°
2026-05-05 14:01 21.69256 39.15273 1002 ft 156 kts 338°
2026-05-05 14:02 21.70274 39.14804 1527 ft 166 kts 341°
2026-05-05 14:02 21.71427 39.14381 1966 ft 183 kts 342°
2026-05-05 14:02 21.72699 39.13894 2336 ft 207 kts 341°
2026-05-05 14:02 21.74132 39.13332 2674 ft 230 kts 340°
2026-05-05 14:03 21.75670 39.12723 3176 ft 245 kts 341°
2026-05-05 14:03 21.77311 39.12074 3731 ft 256 kts 340°
2026-05-05 14:03 21.78997 39.11406 4378 ft 261 kts 339°
2026-05-05 14:03 21.80726 39.10723 4946 ft 269 kts 339°
2026-05-05 14:04 21.82504 39.10017 5490 ft 271 kts 338°
2026-05-05 14:04 21.84277 39.09316 5875 ft 273 kts 338°
2026-05-05 14:04 21.86067 39.08610 5994 ft 274 kts 338°
2026-05-05 14:04 21.87855 39.07905 6022 ft 274 kts 338°
2026-05-05 14:05 21.89643 39.07184 6018 ft 276 kts 336°
2026-05-05 14:05 21.91402 39.06369 6015 ft 275 kts 334°
2026-05-05 14:05 21.93149 39.05530 6014 ft 274 kts 334°
2026-05-05 14:05 21.94304 39.04974 6010 ft 277 kts 334°
2026-05-05 14:06 21.96061 39.04133 6016 ft 276 kts 334°
2026-05-05 14:06 21.97806 39.03299 6160 ft 273 kts 334°
2026-05-05 14:06 21.99571 39.02451 6671 ft 282 kts 334°
2026-05-05 14:06 22.01361 39.01590 7388 ft 281 kts 333°
2026-05-05 14:07 22.03151 39.00730 8125 ft 282 kts 334°
2026-05-05 14:07 22.04960 38.99866 8807 ft 287 kts 333°
2026-05-05 14:07 22.06807 38.98986 9469 ft 292 kts 333°
2026-05-05 14:07 22.08677 38.98091 10092 ft 298 kts 333°
2026-05-05 14:08 22.10593 38.97171 10442 ft 314 kts 333°
2026-05-05 14:08 22.12728 38.96269 10714 ft 335 kts 341°
2026-05-05 14:08 22.15110 38.95901 10961 ft 359 kts 358°
2026-05-05 14:08 22.17639 38.96338 11193 ft 380 kts 16°
2026-05-05 14:09 22.20046 38.97659 11418 ft 399 kts 34°
2026-05-05 14:09 22.22211 38.99629 11639 ft 415 kts 42°
2026-05-05 14:09 22.24301 39.01779 11850 ft 427 kts 43°
2026-05-05 14:09 22.26493 39.04003 12149 ft 435 kts 42°
2026-05-05 14:10 22.28664 39.06316 12467 ft 444 kts 49°
2026-05-05 14:10 22.30313 39.09160 12889 ft 449 kts 67°
2026-05-05 14:10 22.31206 39.12366 13689 ft 443 kts 78°
2026-05-05 14:10 22.31872 39.15605 14256 ft 442 kts 79°
2026-05-05 14:11 22.32546 39.18873 14569 ft 448 kts 78°
2026-05-05 14:11 22.33252 39.22174 14942 ft 453 kts 78°
2026-05-05 14:11 22.33973 39.25487 15494 ft 453 kts 78°
2026-05-05 14:11 22.34696 39.28802 15985 ft 454 kts 78°
2026-05-05 14:12 22.35420 39.32140 16348 ft 457 kts 78°
2026-05-05 14:12 22.36144 39.35498 16677 ft 461 kts 78°
2026-05-05 14:12 22.36874 39.38891 17053 ft 463 kts 78°
2026-05-05 14:12 22.37608 39.42289 17431 ft 466 kts 78°
2026-05-05 14:13 22.38350 39.45705 17784 ft 468 kts 78°
2026-05-05 14:13 22.39090 39.49138 18152 ft 471 kts 78°
2026-05-05 14:13 22.39822 39.52546 18500 ft 473 kts 78°
2026-05-05 14:13 22.40568 39.56018 18822 ft 475 kts 78°
2026-05-05 14:14 22.41325 39.59508 19150 ft 478 kts 78°
2026-05-05 14:14 22.42089 39.63013 19488 ft 481 kts 78°
2026-05-05 14:14 22.42855 39.66546 19845 ft 484 kts 78°
2026-05-05 14:14 22.43621 39.70102 20193 ft 487 kts 78°
2026-05-05 14:15 22.44388 39.73673 20539 ft 490 kts 78°
2026-05-05 14:15 22.45160 39.77285 20912 ft 494 kts 78°
2026-05-05 14:15 22.46160 39.80855 21321 ft 499 kts 69°
2026-05-05 14:15 22.47815 39.84173 21762 ft 504 kts 55°
2026-05-05 14:16 22.50112 39.87031 22175 ft 505 kts 42°
2026-05-05 14:16 22.52743 39.89561 22551 ft 508 kts 40°
2026-05-05 14:16 22.55427 39.92077 22880 ft 512 kts 40°
2026-05-05 14:16 22.58119 39.94622 23213 ft 516 kts 40°
2026-05-05 14:17 22.60784 39.97154 23529 ft 518 kts 40°
2026-05-05 14:17 22.63503 39.99742 23796 ft 521 kts 40°
2026-05-05 14:17 22.66222 40.02345 24086 ft 522 kts 40°
2026-05-05 14:17 22.68975 40.04990 24402 ft 523 kts 40°
2026-05-05 14:18 22.71665 40.07567 24730 ft 523 kts 40°
2026-05-05 14:18 22.74396 40.10186 25058 ft 523 kts 40°
2026-05-05 14:18 22.77130 40.12800 25370 ft 524 kts 40°
2026-05-05 14:18 22.79862 40.15414 25685 ft 525 kts 40°
2026-05-05 14:19 22.82594 40.18033 26010 ft 525 kts 39°
2026-05-05 14:19 22.85333 40.20661 26329 ft 525 kts 39°
2026-05-05 14:19 22.88072 40.23301 26642 ft 526 kts 39°
2026-05-05 14:19 22.90811 40.25939 26952 ft 527 kts 39°
2026-05-05 14:20 22.93555 40.28589 27271 ft 528 kts 39°
2026-05-05 14:20 22.96260 40.31208 27580 ft 528 kts 39°
2026-05-05 14:20 22.99002 40.33865 27908 ft 528 kts 39°
2026-05-05 14:20 23.01750 40.36516 28219 ft 529 kts 39°
2026-05-05 14:21 23.04501 40.39170 28522 ft 529 kts 39°
2026-05-05 14:21 23.07256 40.41832 28827 ft 530 kts 39°
2026-05-05 14:21 23.10012 40.44495 29138 ft 530 kts 39°
2026-05-05 14:21 23.12772 40.47158 29456 ft 531 kts 38°
2026-05-05 14:22 23.15536 40.49824 29759 ft 531 kts 38°
2026-05-05 14:22 23.18302 40.52495 30031 ft 532 kts 38°
2026-05-05 14:22 23.21066 40.55166 30317 ft 531 kts 38°
2026-05-05 14:22 23.23832 40.57841 30575 ft 532 kts 38°
2026-05-05 14:23 23.26466 40.60671 30800 ft 536 kts 48°
2026-05-05 14:23 23.28544 40.64047 31028 ft 539 kts 63°
2026-05-05 14:23 23.29990 40.67799 31308 ft 538 kts 70°
2026-05-05 14:23 23.31269 40.71571 31580 ft 538 kts 71°
2026-05-05 14:24 23.32562 40.75389 31825 ft 538 kts 70°
2026-05-05 14:24 23.33871 40.79209 32092 ft 538 kts 70°
2026-05-05 14:24 23.35191 40.83016 32366 ft 538 kts 70°
2026-05-05 14:24 23.36515 40.86816 32641 ft 537 kts 70°
2026-05-05 14:25 23.37836 40.90616 32888 ft 537 kts 70°
2026-05-05 14:25 23.39154 40.94425 33119 ft 537 kts 70°
2026-05-05 14:25 23.40473 40.98235 33359 ft 537 kts 70°
2026-05-05 14:25 23.41782 41.02033 33582 ft 537 kts 70°
2026-05-05 14:26 23.43097 41.05839 33819 ft 537 kts 70°
2026-05-05 14:26 23.44409 41.09642 34001 ft 537 kts 70°
2026-05-05 14:26 23.45726 41.13454 34169 ft 537 kts 70°
2026-05-05 14:26 23.47042 41.17263 34347 ft 537 kts 70°
2026-05-05 14:27 23.48349 41.21064 34545 ft 536 kts 71°
2026-05-05 14:27 23.49653 41.24868 34717 ft 535 kts 71°
2026-05-05 14:27 23.50957 41.28664 34859 ft 535 kts 71°
2026-05-05 14:27 23.52240 41.32404 34886 ft 533 kts 71°
2026-05-05 14:28 23.54830 41.39962 34858 ft 532 kts 71°
2026-05-05 14:28 23.57418 41.47540 34844 ft 532 kts 71°
2026-05-05 14:29 23.60005 41.55106 34841 ft 532 kts 71°
2026-05-05 14:29 23.62591 41.62673 34836 ft 532 kts 71°
2026-05-05 14:30 23.65167 41.70252 34839 ft 532 kts 71°
2026-05-05 14:30 23.67679 41.77794 34837 ft 532 kts 72°
2026-05-05 14:31 23.70110 41.85410 34840 ft 532 kts 72°
2026-05-05 14:31 23.72541 41.93038 34837 ft 531 kts 72°
2026-05-05 14:32 23.74998 42.00635 34838 ft 531 kts 71°
2026-05-05 14:32 23.77587 42.08193 34841 ft 531 kts 70°
2026-05-05 14:33 23.80164 42.15754 34843 ft 531 kts 71°
2026-05-05 14:33 23.82737 42.23302 34846 ft 530 kts 71°
2026-05-05 14:34 23.85306 42.30858 34851 ft 530 kts 71°
2026-05-05 14:34 23.87869 42.38376 34859 ft 530 kts 71°
2026-05-05 14:35 23.90429 42.45934 34857 ft 531 kts 71°
2026-05-05 14:35 23.92991 42.53507 34865 ft 531 kts 71°
2026-05-05 14:36 23.95555 42.61089 34867 ft 531 kts 71°
2026-05-05 14:36 23.98102 42.68660 34873 ft 531 kts 71°
2026-05-05 14:37 24.00634 42.76194 34874 ft 531 kts 71°
2026-05-05 14:37 24.03076 42.83819 34879 ft 530 kts 77°
2026-05-05 14:38 24.03715 42.87777 34877 ft 526 kts 89°
2026-05-05 14:38 24.03695 42.91754 34878 ft 520 kts 101°
2026-05-05 14:38 24.02025 42.99324 34885 ft 509 kts 113°
2026-05-05 14:39 23.99926 43.06734 34891 ft 510 kts 112°
2026-05-05 14:39 23.97901 43.14169 34891 ft 510 kts 112°
2026-05-05 14:40 23.95873 43.21602 34896 ft 510 kts 112°
2026-05-05 14:40 23.93839 43.29041 34898 ft 510 kts 112°
2026-05-05 14:41 23.91818 43.36437 34896 ft 510 kts 112°
2026-05-05 14:41 23.89776 43.43863 34896 ft 510 kts 112°
2026-05-05 14:42 23.87738 43.51280 34888 ft 510 kts 112°
2026-05-05 14:42 23.85713 43.58708 34887 ft 509 kts 112°
2026-05-05 14:43 23.83672 43.66114 34882 ft 509 kts 112°
2026-05-05 14:43 23.81621 43.73519 34877 ft 508 kts 112°
2026-05-05 14:44 23.79597 43.80856 34872 ft 508 kts 112°
2026-05-05 14:44 23.77621 43.88274 34863 ft 511 kts 107°
2026-05-05 14:45 23.76798 43.96048 34861 ft 516 kts 98°
2026-05-05 14:45 23.76265 44.03866 34857 ft 516 kts 98°
2026-05-05 14:46 23.75691 44.11679 34855 ft 516 kts 98°
2026-05-05 14:46 23.75099 44.19492 34856 ft 516 kts 98°
2026-05-05 14:47 23.74498 44.27296 34858 ft 516 kts 98°
2026-05-05 14:47 23.73907 44.35048 34859 ft 516 kts 98°
2026-05-05 14:48 23.73306 44.42893 34853 ft 515 kts 98°
2026-05-05 14:48 23.72705 44.50641 34860 ft 515 kts 98°
2026-05-05 14:49 23.72102 44.58434 34862 ft 515 kts 98°
2026-05-05 14:49 23.71497 44.66209 34855 ft 514 kts 98°
2026-05-05 14:50 23.70889 44.73988 34856 ft 513 kts 98°
2026-05-05 14:50 23.70272 44.81755 34855 ft 513 kts 98°
2026-05-05 14:51 23.69657 44.89505 34853 ft 512 kts 98°
2026-05-05 14:51 23.69040 44.97198 34851 ft 512 kts 98°
2026-05-05 14:52 23.68414 45.04934 34859 ft 512 kts 98°
2026-05-05 14:52 23.67796 45.12672 34859 ft 512 kts 98°
2026-05-05 14:53 23.67161 45.20422 34851 ft 511 kts 98°
2026-05-05 14:53 23.66521 45.28152 34841 ft 511 kts 98°
2026-05-05 14:54 23.65993 45.34571 34837 ft 511 kts 98°
2026-05-05 14:54 23.65354 45.42297 34829 ft 511 kts 98°
2026-05-05 14:55 23.64711 45.50014 34823 ft 511 kts 98°
2026-05-05 14:55 23.64055 45.57717 34815 ft 510 kts 98°
2026-05-05 14:56 23.63400 45.65417 34806 ft 510 kts 98°
2026-05-05 14:56 23.62744 45.73109 34803 ft 510 kts 99°
2026-05-05 14:57 23.62073 45.80762 34801 ft 509 kts 98°
2026-05-05 14:57 23.61430 45.88456 34795 ft 509 kts 98°
2026-05-05 14:58 23.60764 45.96144 34799 ft 509 kts 98°
2026-05-05 14:58 23.60095 46.03823 34801 ft 509 kts 98°
2026-05-05 14:59 23.59421 46.11506 34805 ft 509 kts 98°
2026-05-05 14:59 23.58739 46.19190 34813 ft 509 kts 98°
2026-05-05 15:00 23.58173 46.25575 34808 ft 509 kts 98°
2026-05-05 15:00 23.57370 46.34557 34815 ft 510 kts 98°
2026-05-05 15:01 23.56688 46.42207 34815 ft 509 kts 98°
2026-05-05 15:01 23.55992 46.49888 34806 ft 510 kts 99°
2026-05-05 15:02 23.55295 46.57567 34809 ft 508 kts 98°
2026-05-05 15:02 23.54593 46.65233 34806 ft 508 kts 98°
2026-05-05 15:03 23.53886 46.72897 34799 ft 508 kts 98°
2026-05-05 15:03 23.53181 46.80566 34791 ft 508 kts 98°
2026-05-05 15:04 23.52468 46.88232 34779 ft 508 kts 98°
2026-05-05 15:04 23.51756 46.95846 34777 ft 508 kts 98°
2026-05-05 15:05 23.50690 47.07317 34767 ft 507 kts 99°
2026-05-05 15:06 23.49967 47.14962 34767 ft 507 kts 99°
2026-05-05 15:06 23.49233 47.22586 34763 ft 506 kts 99°
2026-05-05 15:07 23.48507 47.30220 34758 ft 506 kts 99°
2026-05-05 15:07 23.47778 47.37842 34759 ft 505 kts 99°
2026-05-05 15:08 23.47037 47.45445 34761 ft 505 kts 99°
2026-05-05 15:08 23.46302 47.53044 34755 ft 504 kts 99°
2026-05-05 15:09 23.45562 47.60639 34750 ft 504 kts 99°
2026-05-05 15:09 23.44821 47.68222 34750 ft 503 kts 99°
2026-05-05 15:10 23.44077 47.75802 34742 ft 503 kts 99°
2026-05-05 15:10 23.43336 47.83329 34739 ft 502 kts 99°
2026-05-05 15:11 23.42581 47.90883 34733 ft 502 kts 99°
2026-05-05 15:11 23.41822 47.98444 34731 ft 502 kts 99°
2026-05-05 15:12 23.41064 48.05990 34725 ft 501 kts 99°
2026-05-05 15:12 23.40308 48.13539 34721 ft 501 kts 99°
2026-05-05 15:13 23.39545 48.21067 34718 ft 500 kts 99°
2026-05-05 15:13 23.38782 48.28589 34716 ft 500 kts 99°
2026-05-05 15:14 23.38136 48.36125 34713 ft 501 kts 95°
2026-05-05 15:14 23.37819 48.43693 34716 ft 501 kts 95°
2026-05-05 15:15 23.37516 48.51266 34709 ft 500 kts 95°
2026-05-05 15:15 23.37208 48.58824 34722 ft 500 kts 95°
2026-05-05 15:16 23.36892 48.66385 34708 ft 500 kts 95°
2026-05-05 15:16 23.36579 48.73942 34709 ft 500 kts 95°
2026-05-05 15:17 23.36255 48.81490 34711 ft 499 kts 95°
2026-05-05 15:17 23.35932 48.89047 34706 ft 499 kts 95°
2026-05-05 15:18 23.35606 48.96551 34702 ft 499 kts 95°
2026-05-05 15:18 23.35280 49.04105 34706 ft 499 kts 95°
2026-05-05 15:19 23.34922 49.11647 34702 ft 499 kts 95°
2026-05-05 15:19 23.34516 49.19183 34706 ft 499 kts 95°
2026-05-05 15:20 23.34122 49.26679 34703 ft 499 kts 95°
2026-05-05 15:20 23.33730 49.34223 34703 ft 499 kts 95°
2026-05-05 15:21 23.33331 49.41766 34705 ft 499 kts 95°
2026-05-05 15:21 23.32927 49.49306 34702 ft 499 kts 95°
2026-05-05 15:22 23.32519 49.56839 34705 ft 499 kts 95°
2026-05-05 15:22 23.32109 49.64380 34707 ft 499 kts 95°
2026-05-05 15:23 23.31696 49.71907 34710 ft 499 kts 95°
2026-05-05 15:23 23.31282 49.79391 34713 ft 499 kts 95°
2026-05-05 15:24 23.30860 49.86920 34712 ft 498 kts 95°
2026-05-05 15:24 23.30440 49.94437 34711 ft 498 kts 95°
2026-05-05 15:25 23.30025 50.01946 34714 ft 497 kts 95°
2026-05-05 15:25 23.29596 50.09457 34719 ft 497 kts 95°
2026-05-05 15:26 23.29157 50.16952 34714 ft 497 kts 95°
2026-05-05 15:26 23.28720 50.24442 34713 ft 496 kts 95°
2026-05-05 15:27 23.28278 50.31937 34714 ft 496 kts 95°
2026-05-05 15:27 23.27835 50.39436 34716 ft 496 kts 95°
2026-05-05 15:28 23.27390 50.46925 34715 ft 496 kts 95°
2026-05-05 15:28 23.26936 50.54412 34721 ft 496 kts 95°
2026-05-05 15:29 23.26484 50.61906 34718 ft 496 kts 95°
2026-05-05 15:29 23.26021 50.69391 34726 ft 496 kts 95°
2026-05-05 15:30 23.25566 50.76828 34723 ft 496 kts 95°
2026-05-05 15:30 23.25096 50.84310 34721 ft 496 kts 95°
2026-05-05 15:31 23.24630 50.91792 34724 ft 495 kts 95°
2026-05-05 15:31 23.24156 50.99260 34726 ft 495 kts 96°
2026-05-05 15:32 23.23672 51.06724 34725 ft 495 kts 95°
2026-05-05 15:32 23.23200 51.14196 34726 ft 494 kts 95°
2026-05-05 15:33 23.22723 51.21655 34729 ft 494 kts 95°
2026-05-05 15:33 23.22245 51.29053 34726 ft 494 kts 95°
2026-05-05 15:34 23.21757 51.36497 34732 ft 493 kts 95°
2026-05-05 15:34 23.21264 51.43945 34734 ft 493 kts 95°
2026-05-05 15:35 23.20766 51.51390 34732 ft 494 kts 95°
2026-05-05 15:35 23.20272 51.58829 34730 ft 494 kts 95°
2026-05-05 15:36 23.19770 51.66282 34736 ft 494 kts 96°
2026-05-05 15:36 23.19267 51.73679 34735 ft 494 kts 96°
2026-05-05 15:37 23.18759 51.81115 34732 ft 494 kts 96°
2026-05-05 15:37 23.18245 51.88567 34734 ft 494 kts 96°
2026-05-05 15:38 23.17731 51.96018 34737 ft 494 kts 96°
2026-05-05 15:38 23.17212 52.03459 34739 ft 494 kts 96°
2026-05-05 15:39 23.16688 52.10910 34741 ft 494 kts 96°
2026-05-05 15:39 23.16162 52.18351 34738 ft 494 kts 96°
2026-05-05 15:40 23.15632 52.25798 34738 ft 494 kts 96°
2026-05-05 15:40 23.15099 52.33189 34738 ft 494 kts 96°
2026-05-05 15:41 23.14897 52.40644 34736 ft 496 kts 84°
2026-05-05 15:41 23.15610 52.44316 34737 ft 495 kts 72°
2026-05-05 15:41 23.16706 52.47859 34743 ft 495 kts 70°
2026-05-05 15:42 23.19480 52.54691 34741 ft 495 kts 59°
2026-05-05 15:42 23.22306 52.60099 34745 ft 495 kts 59°
2026-05-05 15:43 23.25682 52.66618 34743 ft 495 kts 59°
2026-05-05 15:43 23.29035 52.73166 34743 ft 495 kts 60°
2026-05-05 15:44 23.32383 52.79719 34745 ft 495 kts 59°
2026-05-05 15:44 23.35757 52.86248 34748 ft 495 kts 60°
2026-05-05 15:45 23.39098 52.92801 34748 ft 495 kts 60°
2026-05-05 15:45 23.42505 52.99308 34751 ft 494 kts 59°
2026-05-05 15:46 23.45956 53.05783 34750 ft 495 kts 58°
2026-05-05 15:46 23.49420 53.12256 34749 ft 494 kts 58°
2026-05-05 15:47 23.52858 53.18697 34755 ft 495 kts 58°
2026-05-05 15:47 23.56324 53.25182 34752 ft 495 kts 58°
2026-05-05 15:48 23.59781 53.31668 34757 ft 495 kts 59°
2026-05-05 15:48 23.63231 53.38169 34757 ft 495 kts 58°
2026-05-05 15:49 23.66688 53.44679 34754 ft 495 kts 59°
2026-05-05 15:49 23.70122 53.51184 34720 ft 491 kts 58°
2026-05-05 15:49 23.71819 53.54371 34372 ft 493 kts 58°
2026-05-05 15:50 23.73552 53.57611 34101 ft 496 kts 58°
2026-05-05 15:50 23.75278 53.60868 33581 ft 494 kts 58°
2026-05-05 15:50 23.77000 53.64119 32885 ft 494 kts 58°
2026-05-05 15:50 23.78727 53.67368 32164 ft 495 kts 58°
2026-05-05 15:51 23.80458 53.70626 31388 ft 497 kts 58°
2026-05-05 15:51 23.82191 53.73896 30601 ft 497 kts 58°
2026-05-05 15:51 23.83931 53.77158 29819 ft 498 kts 58°
2026-05-05 15:51 23.85672 53.80426 28911 ft 498 kts 58°
2026-05-05 15:52 23.87415 53.83702 28018 ft 499 kts 58°
2026-05-05 15:52 23.89150 53.86988 27145 ft 500 kts 58°
2026-05-05 15:52 23.90889 53.90287 26208 ft 501 kts 58°
2026-05-05 15:52 23.92631 53.93585 25257 ft 500 kts 58°
2026-05-05 15:53 23.94366 53.96868 24371 ft 498 kts 59°
2026-05-05 15:53 23.96094 54.00138 23606 ft 493 kts 59°
2026-05-05 15:53 23.97795 54.03359 22828 ft 488 kts 59°
2026-05-05 15:53 23.99502 54.06564 22102 ft 484 kts 58°
2026-05-05 15:54 24.01273 54.09663 21661 ft 481 kts 57°
2026-05-05 15:54 24.03055 54.12765 21299 ft 479 kts 57°
2026-05-05 15:54 24.04811 54.15826 20804 ft 472 kts 57°
2026-05-05 15:54 24.06542 54.18852 20228 ft 466 kts 57°
2026-05-05 15:55 24.08251 54.21844 19625 ft 461 kts 57°
2026-05-05 15:55 24.09916 54.24767 19041 ft 456 kts 57°
2026-05-05 15:55 24.11590 54.27704 18464 ft 451 kts 57°
2026-05-05 15:55 24.13228 54.30599 17835 ft 444 kts 57°
2026-05-05 15:56 24.14844 54.33452 17123 ft 439 kts 57°
2026-05-05 15:56 24.16347 54.36085 16552 ft 436 kts 57°
2026-05-05 15:56 24.17967 54.38931 16001 ft 431 kts 57°
2026-05-05 15:56 24.19533 54.41707 15484 ft 427 kts 57°
2026-05-05 15:57 24.21092 54.44455 14972 ft 422 kts 57°
2026-05-05 15:57 24.22640 54.47171 14500 ft 418 kts 57°
2026-05-05 15:57 24.24209 54.49909 14176 ft 430 kts 57°
2026-05-05 15:57 24.25789 54.52681 13859 ft 425 kts 57°
2026-05-05 15:58 24.27341 54.55412 13452 ft 418 kts 57°
2026-05-05 15:58 24.29037 54.57959 12867 ft 409 kts 45°
2026-05-05 15:58 24.31243 54.59809 12532 ft 393 kts 28°
2026-05-05 15:58 24.33661 54.61080 12309 ft 378 kts 24°
2026-05-05 15:59 24.35963 54.62270 12114 ft 363 kts 25°
2026-05-05 15:59 24.38174 54.63496 11938 ft 350 kts 27°
2026-05-05 15:59 24.40281 54.64732 11773 ft 337 kts 28°
2026-05-05 15:59 24.42302 54.65938 11623 ft 325 kts 28°
2026-05-05 16:00 24.44243 54.67110 11485 ft 313 kts 28°
2026-05-05 16:00 24.46123 54.68244 11238 ft 305 kts 28°
2026-05-05 16:00 24.47871 54.69561 10779 ft 305 kts 45°
2026-05-05 16:00 24.49006 54.71499 10370 ft 303 kts 71°
2026-05-05 16:01 24.49263 54.73762 9980 ft 300 kts 96°
2026-05-05 16:01 24.48618 54.75913 9616 ft 297 kts 121°
2026-05-05 16:01 24.47398 54.77718 9343 ft 290 kts 129°
2026-05-05 16:01 24.46129 54.79399 9182 ft 280 kts 129°
2026-05-05 16:02 24.44923 54.81022 9036 ft 270 kts 128°
2026-05-05 16:02 24.43754 54.82626 8662 ft 269 kts 128°
2026-05-05 16:02 24.42586 54.84248 8248 ft 270 kts 128°
2026-05-05 16:02 24.41434 54.85856 7941 ft 267 kts 128°
2026-05-05 16:03 24.40307 54.87434 7602 ft 266 kts 128°
2026-05-05 16:03 24.39166 54.89035 7229 ft 266 kts 128°
2026-05-05 16:03 24.38021 54.90640 6827 ft 268 kts 128°
2026-05-05 16:03 24.36879 54.92242 6529 ft 265 kts 127°
2026-05-05 16:04 24.35750 54.93827 6247 ft 262 kts 127°
2026-05-05 16:04 24.34636 54.95389 5987 ft 258 kts 127°
2026-05-05 16:04 24.33539 54.96927 5740 ft 254 kts 127°
2026-05-05 16:04 24.32458 54.98441 5522 ft 249 kts 127°
2026-05-05 16:05 24.31401 54.99921 5320 ft 244 kts 127°
2026-05-05 16:05 24.30360 55.01379 5123 ft 244 kts 127°
2026-05-05 16:05 24.29323 55.02834 4941 ft 242 kts 127°
2026-05-05 16:05 24.28274 55.04232 4760 ft 233 kts 130°
2026-05-05 16:06 24.27203 55.05575 4619 ft 239 kts 129°
2026-05-05 16:06 24.26056 55.06915 4654 ft 243 kts 142°
2026-05-05 16:06 24.24523 55.07633 4625 ft 244 kts 177°
2026-05-05 16:06 24.22885 55.07287 4538 ft 241 kts 211°
2026-05-05 16:07 24.21560 55.06238 4421 ft 237 kts 223°
2026-05-05 16:07 24.20304 55.05057 4275 ft 236 kts 226°
2026-05-05 16:07 24.19358 55.03623 4094 ft 231 kts 253°
2026-05-05 16:07 24.19237 55.01917 4011 ft 226 kts 286°
2026-05-05 16:08 24.19928 55.00401 4009 ft 223 kts 310°
2026-05-05 16:08 24.20923 54.99098 4023 ft 224 kts 311°
2026-05-05 16:08 24.21929 54.97789 4025 ft 226 kts 311°
2026-05-05 16:08 24.22960 54.96487 4030 ft 226 kts 314°
2026-05-05 16:09 24.24042 54.95240 4022 ft 226 kts 315°
2026-05-05 16:09 24.25108 54.93980 4023 ft 227 kts 312°
2026-05-05 16:09 24.26096 54.92627 4017 ft 228 kts 309°
2026-05-05 16:09 24.27062 54.91270 4013 ft 219 kts 309°
2026-05-05 16:10 24.27930 54.90044 4039 ft 197 kts 310°
2026-05-05 16:10 24.28763 54.88872 4042 ft 194 kts 309°
2026-05-05 16:10 24.29589 54.87707 4030 ft 193 kts 309°
2026-05-05 16:10 24.30413 54.86545 4001 ft 194 kts 309°
2026-05-05 16:11 24.31236 54.85383 3874 ft 193 kts 309°
2026-05-05 16:11 24.33709 54.81893 3216 ft 193 kts 309°
2026-05-05 16:12 24.34527 54.80738 2976 ft 191 kts 309°
2026-05-05 16:12 24.36154 54.78441 2513 ft 191 kts 309°
2026-05-05 16:13 24.38445 54.75205 1831 ft 162 kts 310°
2026-05-05 16:13 24.39118 54.74254 1617 ft 152 kts 310°
2026-05-05 16:13 24.39757 54.73354 1410 ft 152 kts 311°
2026-05-05 16:14 24.41032 54.71532 1065 ft 149 kts 309°
2026-05-05 16:14 24.42288 54.69741 699 ft 146 kts 310°
2026-05-05 16:15 24.43557 54.67969 323 ft 147 kts 311°
2026-05-05 16:15 24.44800 54.66236 85 ft 130 kts 307°
2026-05-05 16:16 24.45519 54.65212 80 ft 46 kts 306°
2026-05-05 16:16 24.45662 54.64771 79 ft 9 kts 279°
2026-05-05 16:17 24.45662 54.64767 79 ft 0 kts 279°
2026-05-05 16:17 24.45663 54.64764 79 ft 1 kts 279°
2026-05-05 16:18 24.45675 54.64707 79 ft 6 kts 293°
2026-05-05 16:18 24.45698 54.64657 82 ft 8 kts 288°
2026-05-05 16:18 24.45614 54.64535 80 ft 13 kts 220°
2026-05-05 16:19 24.45539 54.64468 85 ft 15 kts 218°
2026-05-05 16:19 24.45467 54.64401 83 ft 12 kts 231°
2026-05-05 16:19 24.45420 54.64257 74 ft 0 kts 257°